Change the Weather History Date:

Friday, March 14, 2014

  Actual Average Record
Temperature  
Mean Temperature 42 °F -  
Max Temperature 55 °F 42 °F 78 °F (2012)
Min Temperature 28 °F 25 °F 10 °F (2005)
Degree Days  
Heating Degree Days 24    
Moisture  
Dew Point 26 °F    
Average Humidity 50    
Maximum Humidity 80    
Minimum Humidity 26    
Precipitation  
Precipitation 0.00 in - - ()
Sea Level Pressure  
Sea Level Pressure 29.82 in    
Wind  
Wind Speed 14 mph (WNW)    
Max Wind Speed 28 mph    
Max Gust Speed 37 mph    
Visibility 10 miles    
Events      
Averages and records for this station are not official NWS values.
T = Trace of Precipitation, MM = Missing Value Source: NWS Daily Summary

Daily Weather History Graph

Daily Weather History Graph

Search for Another Location

Airport or City:

Trip Planner

Search our weather history database for the weather conditions in past years. The results will help you decide how hot, cold, wet, or windy it might be!

Date:

Astronomy

Mar. 14, 2014 Rise Set
Actual Time 7:33 AM CDT 7:25 PM CDT
Civil Twilight 7:06 AM CDT 7:53 PM CDT
Nautical Twilight 6:33 AM CDT 8:25 PM CDT
Astronomical Twilight 6:01 AM CDT 8:58 PM CDT
Moon 5:48 PM CDT (3/14) 6:15 AM CDT (3/14)
Length of Visible Light 12h 47m
Length of Day
11h 52m
Waxing Gibbous, 96% of the Moon is Illuminated
Mar 14
Waxing Gibbous
Mar 16
Full
Mar 23
Last Quarter
Mar 30
New
Apr 7
First Quarter

Hourly Weather History & Observations

Time (CDT) Temp. Windchill Dew Point Humidity Pressure Visibility Wind Dir Wind Speed Gust Speed Precip Events Conditions
12:15 AM 44.6 °F 38.1 °F 28.4 °F 53% 29.66 in 10.0 mi SSW 13.8 mph - N/A   Clear
12:35 AM 46.4 °F 39.8 °F 26.6 °F 46% 29.66 in 10.0 mi SSW 16.1 mph - N/A   Clear
12:55 AM 48.2 °F - 26.6 °F 43% 29.65 in 10.0 mi SSW 16.1 mph - N/A   Clear
1:15 AM 46.4 °F 40.1 °F 26.6 °F 46% 29.64 in 10.0 mi SSW 15.0 mph 21.9 mph N/A   Clear
1:35 AM 46.4 °F 39.8 °F 26.6 °F 46% 29.64 in 10.0 mi SSW 16.1 mph - N/A   Clear
1:55 AM 46.4 °F 39.2 °F 24.8 °F 43% 29.63 in 10.0 mi SSW 18.4 mph - N/A   Clear
2:15 AM 44.6 °F 38.1 °F 24.8 °F 46% 29.63 in 10.0 mi SSW 13.8 mph - N/A   Clear
2:35 AM 44.6 °F 38.8 °F 24.8 °F 46% 29.64 in 10.0 mi SSW 11.5 mph - N/A   Clear
2:55 AM 44.6 °F 36.6 °F 24.8 °F 46% 29.70 in 10.0 mi West 19.6 mph 29.9 mph N/A   Scattered Clouds
3:15 AM 41.0 °F 35.8 °F 26.6 °F 57% 29.68 in 10.0 mi SW 8.1 mph - N/A   Mostly Cloudy
3:35 AM 37.4 °F 30.8 °F 26.6 °F 65% 29.66 in 10.0 mi SSW 9.2 mph - N/A   Mostly Cloudy
3:55 AM 37.4 °F 30.3 °F 24.8 °F 60% 29.66 in 10.0 mi SW 10.4 mph - N/A   Overcast
4:15 AM 33.8 °F 28.6 °F 24.8 °F 70% 29.65 in 10.0 mi SSW 5.8 mph - N/A   Overcast
4:35 AM 33.8 °F - 24.8 °F 70% 29.65 in 10.0 mi Calm Calm - N/A   Mostly Cloudy
4:55 AM 33.8 °F 30.8 °F 24.8 °F 70% 29.66 in 10.0 mi South 3.5 mph - N/A   Partly Cloudy
5:15 AM 35.6 °F 31.7 °F 26.6 °F 70% 29.66 in 10.0 mi SW 4.6 mph - N/A   Partly Cloudy
5:35 AM 41.0 °F 35.8 °F 26.6 °F 57% 29.67 in 10.0 mi WNW 8.1 mph - N/A   Scattered Clouds
5:55 AM 42.8 °F 35.4 °F 26.6 °F 53% 29.69 in 10.0 mi NW 15.0 mph - N/A   Scattered Clouds
6:15 AM 41.0 °F 32.8 °F 28.4 °F 61% 29.70 in 10.0 mi NW 16.1 mph - N/A   Clear
6:35 AM 41.0 °F 33.9 °F 28.4 °F 61% 29.71 in 10.0 mi NW 12.7 mph - N/A   Partly Cloudy
6:55 AM 41.0 °F 33.5 °F 30.2 °F 65% 29.73 in 10.0 mi NNW 13.8 mph 19.6 mph N/A   Partly Cloudy
7:15 AM 41.0 °F 33.5 °F 32.0 °F 70% 29.74 in 10.0 mi NNW 13.8 mph - N/A   Partly Cloudy
7:35 AM 41.0 °F 32.5 °F 30.2 °F 65% 29.76 in 10.0 mi NNW 17.3 mph 24.2 mph N/A   Clear
7:55 AM 39.2 °F 30.2 °F 30.2 °F 70% 29.77 in 10.0 mi NNW 17.3 mph - N/A   Clear
8:15 AM 39.2 °F 30.2 °F 30.2 °F 70% 29.78 in - NW 17.3 mph - N/A   Clear
8:35 AM 41.0 °F 33.1 °F 30.2 °F 65% 29.79 in 10.0 mi NW 15.0 mph 23.0 mph N/A   Clear
8:55 AM 41.0 °F 33.1 °F 30.2 °F 65% 29.81 in 10.0 mi NW 15.0 mph 20.7 mph N/A   Clear
9:15 AM 42.8 °F 34.5 °F 30.2 °F 61% 29.82 in 10.0 mi NW 18.4 mph - N/A   Clear
9:35 AM 44.6 °F 37.2 °F 30.2 °F 57% 29.83 in 10.0 mi NW 17.3 mph 23.0 mph N/A   Clear
9:55 AM 44.6 °F 36.4 °F 30.2 °F 57% 29.84 in 10.0 mi NW 20.7 mph - N/A   Clear
10:15 AM 46.4 °F 39.5 °F 30.2 °F 53% 29.84 in 10.0 mi NW 17.3 mph 25.3 mph N/A   Clear
10:35 AM 46.4 °F 38.3 °F 30.2 °F 53% 29.85 in 10.0 mi NW 23.0 mph 28.8 mph N/A   Clear
10:55 AM 48.2 °F - 30.2 °F 50% 29.86 in 10.0 mi NW 25.3 mph 33.4 mph N/A   Clear
11:15 AM 50.0 °F - 30.2 °F 47% 29.86 in 10.0 mi NW 24.2 mph 32.2 mph N/A   Clear
11:35 AM 50.0 °F - 30.2 °F 47% 29.87 in 10.0 mi NW 19.6 mph 27.6 mph N/A   Clear
11:55 AM 50.0 °F - 28.4 °F 43% 29.87 in 10.0 mi NW 18.4 mph 26.5 mph N/A   Clear
12:15 PM 51.8 °F - 28.4 °F 41% 29.87 in 10.0 mi WNW 17.3 mph 24.2 mph N/A   Clear
12:35 PM 51.8 °F - 24.8 °F 35% 29.87 in 10.0 mi NW 24.2 mph 31.1 mph N/A   Clear
12:55 PM 53.6 °F - 24.8 °F 33% 29.87 in 10.0 mi WNW 19.6 mph 29.9 mph N/A   Clear
1:15 PM 53.6 °F - 23.0 °F 30% 29.88 in 10.0 mi WNW 25.3 mph - N/A   Clear
1:35 PM 53.6 °F - 24.8 °F 33% 29.88 in 10.0 mi WNW 19.6 mph 35.7 mph N/A   Clear
1:55 PM 53.6 °F - 23.0 °F 30% 29.89 in 10.0 mi NW 26.5 mph - N/A   Clear
2:15 PM 53.6 °F - 23.0 °F 30% 29.88 in 10.0 mi NW 27.6 mph 36.8 mph N/A   Clear
2:35 PM 55.4 °F - 24.8 °F 31% 29.88 in 10.0 mi NW 19.6 mph 26.5 mph N/A   Clear
2:55 PM 55.4 °F - 24.8 °F 31% 29.88 in 10.0 mi NW 19.6 mph 26.5 mph N/A   Clear
3:15 PM 55.4 °F - 23.0 °F 29% 29.88 in 10.0 mi WNW 21.9 mph 31.1 mph N/A   Clear
3:35 PM 55.4 °F - 23.0 °F 29% 29.88 in 10.0 mi NW 23.0 mph 28.8 mph N/A   Clear
3:55 PM 55.4 °F - 21.2 °F 26% 29.88 in 10.0 mi NW 21.9 mph - N/A   Clear
4:15 PM 55.4 °F - 21.2 °F 26% 29.88 in 10.0 mi NW 18.4 mph 27.6 mph N/A   Clear
4:35 PM 55.4 °F - 21.2 °F 26% 29.88 in 10.0 mi NW 17.3 mph - N/A   Clear
4:55 PM 53.6 °F - 21.2 °F 28% 29.89 in 10.0 mi NW 20.7 mph - N/A   Clear
5:15 PM 53.6 °F - 21.2 °F 28% 29.89 in 10.0 mi NW 17.3 mph 24.2 mph N/A   Clear
5:35 PM 53.6 °F - 23.0 °F 30% 29.89 in 10.0 mi NW 17.3 mph 24.2 mph N/A   Clear
5:55 PM 53.6 °F - 23.0 °F 30% 29.90 in 10.0 mi WNW 13.8 mph 21.9 mph N/A   Clear
6:15 PM 53.6 °F - 21.2 °F 28% 29.91 in 10.0 mi WNW 13.8 mph - N/A   Clear
6:35 PM 51.8 °F - 21.2 °F 30% 29.91 in 10.0 mi WNW 12.7 mph - N/A   Clear
6:55 PM 50.0 °F - 23.0 °F 35% 29.92 in 10.0 mi WNW 8.1 mph - N/A   Clear
7:15 PM 50.0 °F - 23.0 °F 35% 29.92 in 10.0 mi West 5.8 mph - N/A   Clear
7:35 PM 46.4 °F 42.4 °F 23.0 °F 40% 29.93 in 10.0 mi WNW 8.1 mph - N/A   Clear
7:55 PM 42.8 °F 38.6 °F 23.0 °F 46% 29.93 in 10.0 mi West 6.9 mph - N/A   Clear
8:15 PM 42.8 °F 39.3 °F 23.0 °F 46% 29.93 in 10.0 mi WNW 5.8 mph - N/A   Clear
8:35 PM 39.2 °F 34.2 °F 23.0 °F 52% 29.93 in 10.0 mi WNW 6.9 mph - N/A   Clear
8:55 PM 37.4 °F - 23.0 °F 56% 29.94 in 8.0 mi Calm Calm - N/A   Clear
9:15 PM 35.6 °F - 24.8 °F 65% 29.94 in 10.0 mi Calm Calm - N/A   Clear
9:35 PM 33.8 °F - 24.8 °F 70% 29.94 in 10.0 mi Calm Calm - N/A   Clear
9:55 PM 35.6 °F - 23.0 °F 60% 29.95 in 10.0 mi Calm Calm - N/A   Clear
10:15 PM 32.0 °F - 23.0 °F 69% 29.95 in 10.0 mi Calm Calm - N/A   Clear
10:35 PM 32.0 °F - 23.0 °F 69% 29.96 in 10.0 mi Calm Calm - N/A   Clear
10:55 PM 30.2 °F - 23.0 °F 75% 29.95 in 10.0 mi Calm Calm - N/A   Partly Cloudy
11:15 PM 28.4 °F - 23.0 °F 80% 29.96 in 10.0 mi Calm Calm - N/A   Clear
11:35 PM 28.4 °F - 23.0 °F 80% 29.95 in 10.0 mi Calm Calm - N/A   Clear
11:55 PM 28.4 °F 23.3 °F 23.0 °F 80% 29.95 in 10.0 mi North 4.6 mph - N/A   Clear